Tracking 19572 objects as of 23-Feb-2019
HD Live streaming from Space Station
objects crossing your sky now

DELLINGR (RBLE)

Track DELLINGR (RBLE) now!
10-day predictions


NORAD ID: 43021
Int'l Code: 1998-067NJ
Perigee: 390.0 km
Apogee: 393.3 km
Inclination: 51.6 °
Period: 92.2 minutes
Semi major axis: 6762 km
RCS: Unknown
Launch date: November 20, 1998
Source: United States (US)
Launch site: TYURATAM MISSILE AND SPACE COMPLEX (TTMTR)
aabbcc
Your satellite tracking list
Your tracking list is empty




NASA's NSSDC Master Catalog

Two Line Element Set (TLE):
1 43021U 98067NJ  19054.43263130  .00007728  00000-0  95928-4 0  9992
2 43021  51.6384 193.5713 0002382  31.8730 328.2407 15.61087235 71670
Source of the keplerian elements: AFSPC